Total_Precipitation_Accumulation
1.24 1.29 1.26 1.34 1.44 1.68 1.88 1.84 1.64 1.60 1.60 1.59 1.56 1.62 1.78 1.90 2.01 2.13 2.20 2.20 2.20 2.32 2.26 2.22 2.31 2.41 2.67 2.64 2.68 2.67 2.59 2.52 2.47 2.22 1.86 1.84 2.08 2.17 2.06 1.85 1.69 1.69 1.54
1.04 1.10 1.18 1.19 1.29 1.40 1.53 1.56 1.47 1.35 1.31 1.35 1.40 1.40 1.49 1.69 1.84 1.85 1.89 1.89 1.92 2.03 2.10 2.04 2.09 2.18 2.30 2.51 2.61 2.59 2.61 2.58 2.56 2.48 2.14 1.95 1.91 2.03 2.09 2.04 1.78 1.65 1.57
0.97 1.06 1.16 1.13 1.13 1.13 1.16 1.13 1.15 1.13 1.17 1.19 1.30 1.35 1.42 1.52 1.68 1.70 1.73 1.67 1.67 1.73 1.85 1.92 1.99 2.05 2.09 2.21 2.18 2.26 2.40 2.57 2.66 2.55 2.38 2.16 2.00 1.97 2.04 2.01 1.94 1.97 1.71
1.06 1.15 1.21 1.21 1.20 1.19 1.16 1.12 1.13 1.13 1.16 1.24 1.41 1.47 1.48 1.50 1.51 1.56 1.64 1.64 1.52 1.45 1.51 1.57 1.70 1.84 1.89 2.07 2.03 2.04 2.20 2.45 2.73 2.73 2.56 2.32 2.18 2.13 2.08 2.05 2.10 2.08 1.98
0.95 1.08 1.15 1.22 1.27 1.20 1.08 1.03 1.08 1.07 1.05 1.18 1.33 1.46 1.50 1.49 1.45 1.54 1.62 1.65 1.59 1.41 1.33 1.35 1.42 1.57 1.85 1.96 1.91 2.13 2.28 2.34 2.49 2.64 2.60 2.52 2.36 2.22 2.08 1.98 2.04 2.10 2.12
0.87 0.97 1.16 1.23 1.16 1.10 1.00 0.98 0.99 0.97 0.96 1.05 1.18 1.36 1.47 1.44 1.83 1.82 1.62 1.59 1.56 1.41 1.28 1.26 1.24 1.25 1.48 1.80 1.97 2.09 2.22 2.30 2.34 2.38 2.41 2.33 2.26 2.21 2.28 2.26 2.15 2.06 2.03
0.80 0.95 1.15 1.17 1.08 1.01 1.04 1.06 1.00 0.97 0.99 1.05 1.09 1.10 1.20 1.50 1.57 1.31 1.34 1.34 1.46 1.38 1.25 1.16 1.07 1.04 1.21 1.30 1.47 1.60 1.79 2.10 2.31 2.35 2.24 2.09 2.17 2.14 2.21 2.26 2.18 2.10 1.98
0.70 0.82 1.00 1.05 1.02 1.04 1.04 1.01 0.93 0.87 0.87 0.92 0.94 0.99 1.06 1.20 1.23 1.15 1.23 1.13 1.27 1.27 1.17 1.13 1.11 1.09 1.13 1.19 1.35 1.49 1.48 1.55 1.79 1.85 1.87 1.89 1.96 2.12 2.21 2.24 2.32 2.25 2.20
0.58 0.69 0.79 0.82 0.88 0.92 0.89 0.91 0.86 0.78 0.77 0.80 0.83 0.90 0.99 0.99 1.03 1.02 1.08 1.17 1.30 1.26 1.13 1.12 1.11 1.07 1.28 1.38 1.35 1.43 1.49 1.45 1.58 1.76 1.97 1.96 1.87 1.88 1.99 2.06 2.20 2.25 2.22
0.50 0.61 0.69 0.70 0.73 0.76 0.82 0.85 0.86 0.80 0.76 0.76 0.80 0.82 0.87 0.92 1.07 0.94 1.03 1.19 1.30 1.31 1.27 1.17 1.28 1.26 1.39 1.39 1.31 1.45 1.50 1.32 1.25 1.36 1.54 1.58 1.49 1.51 1.71 1.72 1.93 2.11 2.03
0.39 0.50 0.57 0.60 0.67 0.77 0.85 0.87 0.91 0.87 0.82 0.81 0.85 0.86 0.83 0.91 1.07 1.05 1.07 1.10 1.29 1.34 1.36 1.28 1.15 1.26 1.26 1.31 1.36 1.41 1.60 1.46 1.32 1.38 1.50 1.48 1.36 1.35 1.42 1.48 1.61 1.89 1.97
0.30 0.37 0.50 0.58 0.66 0.74 0.85 0.90 0.88 0.89 0.90 0.92 0.91 0.92 0.88 0.88 0.96 1.01 1.04 1.09 1.19 1.21 1.30 1.27 1.21 1.32 1.20 1.16 1.16 1.29 1.59 1.53 1.36 1.39 1.43 1.43 1.35 1.26 1.31 1.33 1.41 1.52 1.66
0.25 0.29 0.37 0.43 0.48 0.58 0.68 0.79 0.85 0.85 0.85 0.87 0.93 1.00 1.02 0.94 1.01 1.13 1.00 0.98 1.04 1.04 1.07 1.20 1.19 1.17 1.10 1.04 1.09 1.21 1.34 1.46 1.47 1.40 1.31 1.28 1.27 1.25 1.30 1.28 1.28 1.37 1.40
0.25 0.28 0.30 0.33 0.35 0.42 0.57 0.64 0.68 0.73 0.78 0.85 0.93 1.04 1.15 1.10 1.03 1.00 0.96 0.95 0.97 0.91 0.86 0.89 0.91 0.94 0.94 0.94 0.99 1.04 1.15 1.34 1.47 1.38 1.25 1.26 1.28 1.30 1.33 1.25 1.25 1.32 1.36
0.25 0.27 0.28 0.29 0.32 0.37 0.45 0.58 0.65 0.71 0.77 0.83 0.91 1.05 1.13 1.13 1.15 1.25 1.21 1.12 1.07 1.04 0.99 0.89 0.83 0.86 0.95 1.01 1.02 1.01 1.07 1.18 1.29 1.27 1.22 1.21 1.25 1.30 1.29 1.23 1.21 1.25 1.28
0.31 0.30 0.30 0.32 0.35 0.38 0.43 0.52 0.59 0.61 0.63 0.67 0.73 0.79 0.87 0.94 1.00 1.01 1.04 1.04 1.01 1.00 1.07 1.05 1.02 1.06 1.08 1.06 1.07 1.01 0.97 1.01 1.14 1.21 1.22 1.17 1.14 1.20 1.25 1.25 1.24 1.25 1.25
0.41 0.39 0.37 0.36 0.41 0.46 0.47 0.49 0.55 0.57 0.59 0.62 0.64 0.70 0.75 0.80 0.81 0.84 0.89 0.95 0.98 0.96 1.04 1.02 0.96 0.90 0.90 0.89 0.91 0.91 0.91 0.91 0.97 1.09 1.14 1.16 1.13 1.16 1.25 1.29 1.29 1.33 1.33
0.33 0.36 0.38 0.41 0.40 0.44 0.51 0.58 0.65 0.69 0.65 0.59 0.59 0.66 0.67 0.68 0.70 0.73 0.80 0.83 0.79 0.77 0.79 0.86 0.84 0.80 0.75 0.76 0.76 0.74 0.77 0.81 0.85 0.92 1.00 1.05 1.11 1.15 1.21 1.26 1.29 1.29 1.32
0.30 0.35 0.44 0.48 0.46 0.46 0.56 0.67 0.72 0.74 0.71 0.63 0.54 0.54 0.58 0.56 0.59 0.65 0.70 0.71 0.70 0.63 0.63 0.70 0.75 0.76 0.70 0.65 0.65 0.63 0.64 0.67 0.71 0.78 0.86 0.92 0.99 1.04 1.09 1.15 1.21 1.27 1.29
0.33 0.40 0.49 0.54 0.51 0.53 0.57 0.59 0.59 0.63 0.63 0.59 0.57 0.60 0.60 0.54 0.52 0.55 0.58 0.60 0.63 0.62 0.63 0.67 0.70 0.72 0.69 0.67 0.65 0.62 0.63 0.66 0.68 0.73 0.81 0.91 0.96 0.98 0.97 1.01 1.11 1.17 1.15
0.42 0.42 0.44 0.51 0.51 0.49 0.51 0.50 0.53 0.57 0.55 0.54 0.55 0.60 0.63 0.57 0.55 0.55 0.55 0.56 0.56 0.61 0.64 0.66 0.68 0.73 0.73 0.70 0.69 0.69 0.67 0.67 0.67 0.72 0.76 0.79 0.84 0.89 0.92 0.95 0.97 1.02 1.08
0.43 0.44 0.43 0.50 0.53 0.48 0.46 0.48 0.53 0.55 0.55 0.54 0.53 0.55 0.57 0.52 0.52 0.54 0.56 0.59 0.60 0.62 0.65 0.65 0.67 0.72 0.77 0.76 0.74 0.75 0.76 0.74 0.72 0.74 0.77 0.78 0.80 0.82 0.86 0.88 0.90 0.94 0.98
0.46 0.46 0.45 0.49 0.50 0.48 0.47 0.48 0.54 0.58 0.57 0.54 0.54 0.55 0.54 0.51 0.50 0.52 0.57 0.65 0.70 0.69 0.66 0.65 0.68 0.74 0.77 0.78 0.75 0.75 0.76 0.73 0.71 0.73 0.79 0.83 0.84 0.86 0.89 0.91 0.91 0.96 1.01
0.49 0.50 0.52 0.54 0.54 0.56 0.59 0.59 0.57 0.58 0.60 0.59 0.56 0.55 0.55 0.52 0.53 0.54 0.58 0.65 0.70 0.70 0.69 0.67 0.68 0.73 0.78 0.80 0.79 0.76 0.73 0.73 0.71 0.71 0.77 0.85 0.87 0.86 0.87 0.89 0.93 0.94 1.00
0.48 0.50 0.52 0.56 0.57 0.59 0.64 0.63 0.60 0.60 0.62 0.65 0.67 0.64 0.60 0.57 0.56 0.57 0.59 0.64 0.66 0.65 0.65 0.65 0.70 0.74 0.75 0.75 0.75 0.77 0.89 0.90 0.83 0.80 0.78 0.84 0.89 0.88 0.90 0.94 0.97 1.01 1.06
0.48 0.51 0.56 0.63 0.64 0.63 0.65 0.68 0.66 0.64 0.66 0.69 0.72 0.75 0.74 0.68 0.63 0.62 0.63 0.66 0.66 0.64 0.63 0.63 0.66 0.69 0.71 0.73 0.74 0.81 0.86 0.81 0.81 0.86 0.84 0.85 0.91 0.96 1.00 1.04 1.05 1.12 1.20